Location: Olomouc
(49.5830°N, 17.2500°E)
Time: 03:39:26
(UTC+01:00)

ISS - Visible Passes

Search period start: 15 December 2017 00:00
Search period end: 25 December 2017 00:00
Orbit: 403 x 406 km, 51.6° (Epoch: 15 December)

Date Brightness Start Highest point End Pass type
(mag) Time Alt. Az. Time Alt. Az. Time Alt. Az.
15 Dec -0.8 17:57:38 10° W 17:59:41 16° SW 18:01:44 10° S visible
16 Dec -1.4 17:04:54 10° W 17:07:39 25° SW 17:10:24 10° SSE visible
18 Dec -0.5 16:57:41 10° WSW 16:59:18 13° SW 17:00:55 10° SSW visible
